Home   Weather   Kugluktuk   Past weeks

Flag for Canada Past Weather in Kugluktuk, Nunavut, Canada — Yesterday and Last 2 Weeks

Now
1 °F

Light snow. Overcast.


Feels Like: -8 °F
Forecast: -14 / -1 °F
Wind: 5 mph from Southwest

Location: Coppermine

Current Time: Jan 24, 2017 at 6:23:54 am

Latest Report: Jan 24, 2017 at 5:00 am


Visibility: 10 mi

Pressure: 29.85 "Hg

Humidity: 78%

Dew Point: -4 °F

Location of KugluktukLocation

Past Weather in Kugluktuk — Graph

°F

Kugluktuk Temperature Yesterday

Maximum temperature yesterday: 0 °F (at 5:00 pm)
Minimum temperature yesterday: -8 °F (at 6:00 am)
Average temperature yesterday: -3 °F

High & Low Weather Summary for the Past Weeks

 TemperatureHumidityPressure
High5 °F (Jan 20, 9:30 am)85% (Jan 20, 6:00 am)30.32 "Hg (Jan 20, 6:00 am)
Low-36 °F (Jan 11, 12:00 pm)60% (Jan 11, 9:00 pm)29.36 "Hg (Jan 16, 2:00 pm)
Average-13 °F73%29.79 "Hg
* Reported Jan 9 5:00 am — Jan 24 5:00 am, Kugluktuk, Weather by CustomWeather, © 2017

Note: Actual official high and low records may vary slightly from our data, if they occured in-between our weather recording intervals... More about our weather records

Advertising

Kugluktuk Weather History for the Previous 24 Hours

Scroll right to see more
 ConditionsComfort  
Time TempWeatherWind HumidityBarometerVisibility
5:00 am
Tue, Jan 24
1 °FLight snow. Overcast.5 mph78%29.85 "Hg10 mi
4:00 am0 °FLight snow. Overcast.5 mph78%29.87 "Hg10 mi
3:00 am0 °FLight snow. Overcast.7 mph71%29.87 "Hg10 mi
2:24 am0 °FLight snow. Overcast.3 mph71%29.88 "Hg15 mi
2:00 am0 °FOvercast.5 mph71%29.89 "Hg15 mi
1:00 am0 °FOvercast.3 mph71%29.90 "Hg15 mi
12:00 am0 °FOvercast.7 mph71%29.91 "Hg15 mi
11:00 pm
Mon, Jan 23
0 °FOvercast.9 mph71%29.92 "Hg15 mi
10:00 pm0 °FOvercast.8 mph71%29.92 "Hg15 mi
9:00 pm0 °FOvercast.10 mph71%29.93 "Hg15 mi
8:00 pm0 °FOvercast.9 mph71%29.95 "Hg15 mi
7:00 pm0 °FOvercast.8 mph71%29.96 "Hg15 mi
6:00 pm0 °FOvercast.12 mph71%29.97 "Hg15 mi
5:00 pm0 °FOvercast.15 mph71%29.98 "Hg15 mi
4:00 pm-2 °FOvercast.15 mph71%29.99 "Hg15 mi
3:00 pm-2 °FOvercast.18 mph71%30.00 "Hg15 mi
2:52 pm-4 °FOvercast.16 mph77%30.01 "Hg15 mi
2:00 pm-4 °FSnow flurries. Overcast.18 mph77%30.01 "Hg15 mi
1:16 pm-4 °FSnow flurries. Overcast.21 mph71%30.02 "Hg15 mi
1:00 pm-4 °FScattered flurries. Overcast.18 mph71%30.03 "Hg10 mi
12:00 pm-4 °FMore clouds than sun.20 mph77%30.06 "Hg15 mi
11:00 am-2 °FMostly cloudy.22 mph71%30.06 "Hg15 mi
10:00 am-2 °FPassing clouds.17 mph71%30.07 "Hg15 mi
9:00 am-6 °FPassing clouds.15 mph70%30.08 "Hg15 mi
8:00 am-6 °FPassing clouds.21 mph70%30.10 "Hg12 mi
7:00 am-8 °FPassing clouds.17 mph70%30.11 "Hg12 mi
6:00 am-8 °FPassing clouds.3 mph77%30.15 "Hg12 mi
Weather by CustomWeather, © 2017

See weather overviewHow to use our weather pages